Hourly Data Report for October 31, 2016

All times are specified in Local Standard Time (LST). Add 1 hour to adjust for Daylight Saving Time where and when it is observed.

EUREKA CLIMATE
NUNAVUT

79°59'21.000" N
85°56'02.000" W
10.00 m
2401199
71613
NEK

Download Data

Hourly Data (October 2016)
Hourly Data Report for October 31, 2016
Temp Definition
°C
Dew Point Temp Definition
°C
Rel Hum Definition
%
Wind Dir Definition
10's deg

Wind Spd Definition
km/h
Visibility Definition
km
Stn Press Definition
kPa
Hmdx Definition


Wind Chill Definition


Weather Definition


TIME
00:00 -28.6 -31.1 79 8 10   101.97   -37 LegendNANA
01:00 -29.2 -31.9 77 12 5   101.99   -35 LegendNANA
02:00 -28.9 -31.5 79 11 11   102.02   -38 LegendNANA
03:00 -28.2 -30.6 79 8 5   102.04   -34 LegendNANA
04:00 -28.4 -31.0 78 10 5   102.03   -34 LegendNANA
05:00 -28.3 -30.8 79 6 8   102.04   -36 LegendNANA
06:00 -28.6 -31.3 78 7 3   102.00   -32 LegendNANA
07:00 -28.8 -31.5 78 7 5   102.00   -34 LegendNANA
08:00 -29.0 -31.7 78 20 2   102.00   -31 LegendNANA
09:00 -29.3 -32.0 77 12 4   101.99   -34 LegendNANA
10:00 -29.3 -31.9 78 4 4   101.92   -34 LegendNANA
11:00 -30.3 -33.1 76 5 4   101.90   -35 LegendNANA
12:00 -30.2 -33.1 76 11 7   101.84   -38 LegendNANA
13:00 -30.1 -32.9 77 10 4   101.80   -35 LegendNANA
14:00 -30.7 -33.6 75 5 2   101.76   -33 LegendNANA
15:00 -30.0 -32.9 76 9 2   101.72   -32 LegendNANA
16:00 -30.6 -33.4 76 2 8   101.62   -39 LegendNANA
17:00 -29.4 -32.1 77 36 6   101.56   -36 LegendNANA
18:00 -28.7 -31.4 78 12 3   101.48   -32 LegendNANA
19:00 -29.2 -31.9 77 1 3   101.40   -33 LegendNANA
20:00 -28.3 -31.0 78 13 7   101.30   -35 LegendNANA
21:00 -29.1 -31.8 77 2 6   101.17   -35 LegendNANA
22:00 -29.4 -32.1 77 11 10   101.05   -38 LegendNANA
23:00 -29.2 -31.9 77 11 8   100.96   -37 LegendNANA

Notes on Data Quality.

Legend

  • E = Estimated
  • M = Missing
  • NA = Not Available
  • ‡ = Partner data that is not subject to review by the National Climate Archives
Date modified: